Погода в Марьинском

Россия / Костромская область     57°28′43″N   40°42′47″E
темп.,
°C
ветер,
м/с
пор.,
м/с
влажн.,
%
обл.,
%
осадки,
мм/ч
давл.,
гПа
погр.,
м
5 марта, пт
пт500:00−12зсз23920 0.0 100121
03:00−13зсз33950 0.0 100228
06:00−14зсз349517 0.0 100339
09:00−10з369550 0.1 1004233
12:00−6зсз469394 0.1 1005453
15:00−5сз468797 0.3 1007740
18:00−9сз5108874 0.1 1009235
21:00−14сз349237 0.1 101147
6 марта, сб
сб600:00−15з23870 0.0 101320
03:00−16зюз469041 0.0 101489
06:00−13з389697 0.1 1014197
09:00−14сз369479 0.2 1015217
12:00−11сз358826 0.0 1015486
15:00−9зсз458461 0.0 1014690
18:00−13з239061 0.0 101422
21:00−15зюз349434 0.0 101342
7 марта, вс
вс700:00−15ююз479230 0.0 1010116
03:00−14ю5129116 0.0 1007230
06:00−10ююз7149391 0.1 1002532
09:00−8ююз8149296 0.4 997765
12:00−5ююз81393100 0.8 993950
15:00−4ююз71194100 1.8 990901
18:00−6зсз101593100 1.6 989774
21:00−8з71384100 2.4 991652
8 марта, пн
пн800:00−12зюз51188100 0.0 991230
03:00−14зюз4989100 0.0 991164
06:00−14з4789100 0.0 991151
09:00−11зсз5994100 0.3 992428
12:00−8ссз6992100 0.7 994743
15:00−9ссз71090100 1.1 998880
18:00−11ссз51092100 0.3 1001543
21:00−13ссз5109399 0.3 1005433
9 марта, вт
вт900:00−15ссз4109594 0.1 1007306
03:00−18ссз489691 0.1 1010181
06:00−19ссз499794 0.0 1012214
09:00−20ссз479579 0.0 1014301
12:00−18ссз469178 0.0 1016415
15:00−16ссз578789 0.0 1017611
18:00−19сз3694100 0.0 1018100
21:00−23ссз349790 0.0 102056